SAUDISAT 1A 1 26545U 00057A 08186.76224033 -.00000142 00000-0 56403-6 0 98 2 26545 64.5572 108.0409 0031262 334.3020 25.6530 14.80515790419762 UNISAT 1 26547U 00057C 08186.32796267 .00000025 00000-0 21595-4 0 276 2 26547 64.5566 97.5265 0032225 346.2229 13.7987 14.82252466419957 SAUDISAT 1B 1 26549U 00057E 08186.72662100 -.00000114 00000-0 41375-5 0 842 2 26549 64.5571 122.8716 0032099 342.7825 17.2187 14.79373930419463 MOZHAYETS 1 27560U 02054B 08186.70989968 .00000102 00000-0 33740-4 0 7071 2 27560 97.9682 40.3276 0042410 212.4480 147.4117 14.54974834296222 SAUDISAT 1C 1 27607U 02058C 08186.74600344 -.00000082 00000-0 97408-5 0 6438 2 27607 64.5594 0.3132 0086039 276.1175 83.0094 14.71365749297550 UNISAT 2 1 27608U 02058D 08186.62365334 .00000545 00000-0 10000-3 0 6617 2 27608 64.5602 331.0746 0069942 268.7129 90.5856 14.74357983298156 SAUDISAT 2 1 28371U 04025F 08186.90669054 -.00000020 00000-0 56243-5 0 5662 2 28371 98.0737 240.0805 0027333 43.9790 316.3568 14.52895786212941 UNISAT 3 1 28373U 04025H 08186.74323722 .00000037 00000-0 22644-4 0 1474 2 28373 98.0660 216.6575 0072360 83.7349 277.2083 14.43277325212022 SSETI EXPRESS (XO-53) 1 28894U 05043E 08186.79054630 .00000012 00000-0 12078-4 0 2044 2 28894 98.0955 80.2636 0017814 359.8849 0.2344 14.59624575143178 SAUDISAT 3 1 31118U 07012B 08186.87985706 -.00000017 00000-0 54699-5 0 3785 2 31118 98.0501 260.9489 0014166 256.3751 103.5865 14.67992430 65222